Arctic Village, AK

7:26 PM AKDT on October 20, 2017 (GMT -0800)
Arctic Village

Weather History for PARC - October, 2012

Change the Weather History Date:

Saturday, October 20, 2012

  Actual Average Record
Temperature  
Mean Temperature 2 °F -  
Max Temperature 12 °F 15 °F 36 °F (1962)
Min Temperature -7 °F -12 °F -28 °F (1971)
Degree Days  
Heating Degree Days 62    
Moisture  
Dew Point 0 °F    
Average Humidity 83    
Maximum Humidity 100    
Minimum Humidity 43    
Precipitation  
Precipitation 0.00 in - - ()
Sea Level Pressure  
Sea Level Pressure 30.35 in    
Wind  
Wind Speed 0 mph (NE)    
Max Wind Speed 5 mph    
Max Gust Speed -    
Visibility 10 miles    
Events      
Averages and records for this station are not official NWS values.
T = Trace of Precipitation, MM = Missing Value Source: NWS Daily Summary

Daily Weather History Graph

Daily Weather History Graph

Search for Another Location

Airport or City:

Trip Planner

Search our weather history database for the weather conditions in past years. The results will help you decide how hot, cold, wet, or windy it might be!

Date:

Astronomy

Oct. 20, 2012 Rise Set
Actual Time 9:08 AM AKDT 5:43 PM AKDT
Civil Twilight 8:09 AM AKDT 6:43 PM AKDT
Nautical Twilight 7:03 AM AKDT 7:48 PM AKDT
Astronomical Twilight 5:58 AM AKDT 8:53 PM AKDT
Moon 4:38 PM AKDT (10/20) 9:00 PM AKDT (10/20)
Length of Visible Light 10h 34m
Length of Day
8h 35m
Waxing Crescent, 35% of the Moon is Illuminated
Oct 20
Waxing Crescent
Oct 21
First Quarter
Oct 29
Full
Nov 6
Last Quarter
Nov 13
New

Hourly Weather History & Observations

Time (AKDT) Temp. Windchill Dew Point Humidity Pressure Visibility Wind Dir Wind Speed Gust Speed Precip Events Conditions
12:16 AM 12.2 °F - 10.4 °F 92% 30.21 in 10.0 mi Calm Calm - N/A   Overcast
12:36 AM 12.2 °F - 10.4 °F 92% 30.22 in 10.0 mi Calm Calm - N/A   Overcast
12:56 AM 12.2 °F - 10.4 °F 92% 30.22 in 10.0 mi Calm Calm - N/A   Overcast
1:16 AM 12.2 °F - 10.4 °F 92% 30.22 in 10.0 mi Calm Calm - N/A   Overcast
1:36 AM 12.2 °F - 10.4 °F 92% 30.23 in 10.0 mi Calm Calm - N/A   Overcast
1:56 AM 10.4 °F - 10.4 °F 100% 30.23 in 10.0 mi Calm Calm - N/A   Overcast
2:16 AM 12.2 °F - 10.4 °F 92% 30.23 in 10.0 mi Calm Calm - N/A   Overcast
2:36 AM 12.2 °F - 10.4 °F 92% 30.23 in 10.0 mi Calm Calm - N/A   Overcast
2:56 AM 12.2 °F - 8.6 °F 85% 30.24 in 10.0 mi Calm Calm - N/A   Overcast
3:16 AM 12.2 °F - 10.4 °F 92% 30.24 in 10.0 mi Calm Calm - N/A   Overcast
3:36 AM 12.2 °F - 10.4 °F 92% 30.24 in 10.0 mi Calm Calm - N/A   Overcast
3:56 AM 10.4 °F - 8.6 °F 92% 30.25 in 10.0 mi Calm Calm - N/A   Overcast
4:16 AM 10.4 °F - 10.4 °F 100% 30.25 in 10.0 mi Calm Calm - N/A   Overcast
4:36 AM 10.4 °F - 8.6 °F 92% 30.25 in 10.0 mi Calm Calm - N/A   Overcast
4:56 AM 10.4 °F 4.0 °F 6.8 °F 85% 30.26 in 10.0 mi East 3.5 mph - N/A   Overcast
5:16 AM 8.6 °F - 6.8 °F 92% 30.27 in 10.0 mi Calm Calm - N/A   Overcast
5:36 AM 10.4 °F - 8.6 °F 92% 30.27 in 10.0 mi Calm Calm - N/A   Overcast
5:56 AM 8.6 °F - 3.2 °F 79% 30.27 in 10.0 mi Calm Calm - N/A   Overcast
6:16 AM 8.6 °F - 6.8 °F 92% 30.28 in 10.0 mi Calm Calm - N/A   Scattered Clouds
6:36 AM 8.6 °F - 6.8 °F 92% 30.28 in 10.0 mi Calm Calm - N/A   Clear
6:56 AM 6.8 °F - -0.4 °F 72% 30.29 in 2.5 mi Calm Calm - N/A   Clear
7:16 AM 6.8 °F - 6.8 °F 100% 30.29 in 10.0 mi Calm Calm - N/A   Clear
7:36 AM 5.0 °F - 3.2 °F 92% 30.30 in 10.0 mi Calm Calm - N/A   Clear
7:56 AM 5.0 °F - -5.8 °F 61% 30.30 in 10.0 mi Calm Calm - N/A   Clear
8:16 AM 1.4 °F - -0.4 °F 92% 30.31 in 10.0 mi Calm Calm - N/A   Clear
8:36 AM 1.4 °F - -5.8 °F 72% 30.31 in 10.0 mi Calm Calm - N/A   Clear
8:56 AM 1.4 °F - 1.4 °F 100% 30.32 in 10.0 mi Calm Calm - N/A   Clear
9:16 AM 1.4 °F - -2.2 °F 85% 30.33 in 10.0 mi Calm Calm - N/A   Clear
9:36 AM -5.8 °F - -14.8 °F 65% 30.33 in 10.0 mi Calm Calm - N/A   Clear
9:56 AM 1.4 °F -8.3 °F 1.4 °F 100% 30.33 in 10.0 mi ENE 4.6 mph - N/A   Clear
10:16 AM -0.4 °F -8.3 °F -18.4 °F 43% 30.34 in 10.0 mi ENE 3.5 mph - N/A   Clear
10:36 AM -0.4 °F - - N/A% 30.34 in 10.0 mi Calm Calm - N/A   Clear
10:56 AM -0.4 °F - -14.8 °F 51% 30.35 in 10.0 mi Calm Calm - N/A   Clear
11:16 AM 1.4 °F - -4.0 °F 78% 30.35 in 10.0 mi Calm Calm - N/A   Clear
11:36 AM 1.4 °F - - N/A% 30.36 in 10.0 mi Calm Calm - N/A   Clear
11:56 AM 3.2 °F - -7.6 °F 61% 30.36 in 10.0 mi Calm Calm - N/A   Clear
12:16 PM 5.0 °F - -2.2 °F 72% 30.36 in 10.0 mi Calm Calm - N/A   Clear
12:36 PM 5.0 °F - - N/A% 30.37 in 10.0 mi Calm Calm - N/A   Clear
12:56 PM 5.0 °F - 3.2 °F 92% 30.37 in 10.0 mi Calm Calm - N/A   Clear
1:16 PM 6.8 °F - -4.0 °F 61% 30.38 in 10.0 mi Calm Calm - N/A   Clear
1:36 PM 6.8 °F - 1.4 °F 79% 30.38 in 10.0 mi Calm Calm - N/A   Clear
1:56 PM 6.8 °F - 6.8 °F 100% 30.39 in 10.0 mi Calm Calm - N/A   Clear
2:16 PM 6.8 °F - 5.0 °F 92% 30.39 in 10.0 mi Calm Calm - N/A   Clear
2:36 PM 6.8 °F - -0.4 °F 72% 30.39 in 10.0 mi Calm Calm - N/A   Clear
2:56 PM 6.8 °F - -0.4 °F 72% 30.39 in 10.0 mi Calm Calm - N/A   Clear
3:16 PM 6.8 °F -0.1 °F 6.8 °F 100% 30.39 in 10.0 mi NE 3.5 mph - N/A   Clear
3:36 PM 6.8 °F - 6.8 °F 100% 30.39 in 10.0 mi Calm Calm - N/A   Clear
3:56 PM 8.6 °F - 3.2 °F 79% 30.39 in 10.0 mi Calm Calm - N/A   Clear
4:16 PM 8.6 °F - 1.4 °F 73% 30.39 in 10.0 mi Calm Calm - N/A   Clear
4:36 PM 8.6 °F - 3.2 °F 79% 30.40 in 10.0 mi Calm Calm - N/A   Clear
4:56 PM 8.6 °F - 3.2 °F 79% 30.40 in 10.0 mi Calm Calm - N/A   Clear
5:16 PM 6.8 °F - 3.2 °F 85% 30.40 in 10.0 mi Calm Calm - N/A   Clear
5:36 PM 6.8 °F - 3.2 °F 85% 30.41 in 10.0 mi Calm Calm - N/A   Clear
5:56 PM 3.2 °F - -2.2 °F 78% 30.41 in 10.0 mi Calm Calm - N/A   Clear
6:36 PM 3.2 °F - -2.2 °F 78% 30.41 in 10.0 mi Calm Calm - N/A   Clear
6:56 PM 3.2 °F - 3.2 °F 100% 30.42 in 10.0 mi Calm Calm - N/A   Clear
7:16 PM 1.4 °F - -0.4 °F 92% 30.42 in 8.0 mi Calm Calm - N/A   Clear
7:36 PM -0.4 °F - -7.6 °F 72% 30.42 in 10.0 mi Calm Calm - N/A   Clear
7:56 PM -0.4 °F - -0.4 °F 100% 30.43 in 10.0 mi Calm Calm - N/A   Clear
8:16 PM -0.4 °F - -5.8 °F 78% 30.43 in 9.0 mi Calm Calm - N/A   Clear
8:36 PM -2.2 °F - -5.8 °F 85% 30.44 in 10.0 mi Calm Calm - N/A   Clear
8:56 PM -5.8 °F - -9.4 °F 84% 30.44 in 10.0 mi Calm Calm - N/A   Clear
9:16 PM -2.2 °F -10.4 °F -2.2 °F 100% 30.44 in 10.0 mi NE 3.5 mph - N/A   Clear
9:36 PM -2.2 °F -12.5 °F -7.6 °F 78% 30.44 in 10.0 mi North 4.6 mph - N/A   Clear
9:56 PM -7.6 °F - -14.8 °F 71% 30.44 in 10.0 mi Calm Calm - N/A   Clear
10:16 PM -5.8 °F -14.5 °F -5.8 °F 100% 30.45 in 10.0 mi NE 3.5 mph - N/A   Clear
10:36 PM -4.0 °F -12.4 °F -20.2 °F 46% 30.45 in 10.0 mi NNE 3.5 mph - N/A   Clear
10:56 PM -5.8 °F - -5.8 °F 100% 30.45 in 10.0 mi Calm Calm - N/A   Clear
11:16 PM -5.8 °F - -18.4 °F 55% 30.45 in 10.0 mi Calm Calm - N/A   Clear
11:36 PM -7.6 °F - -13.0 °F 77% 30.46 in 10.0 mi Calm Calm - N/A   Clear
11:56 PM -7.6 °F - -20.2 °F 54% 30.46 in 10.0 mi Calm Calm - N/A   Clear